• In Belarus
  • List of Countries
  • For 7 days
  • Water Temperature
  • Satellite Maps
  • Weather Map
  • Weather Widgets
  • user-avatar
    Login

    Hourly Weather Vorohta

    Today, 23 February, Friday

    Time Temperature Precipitation Wind Pressure Humidity
    00:00 -8°C° 0 mm 2 mps 683 mmHg 100%
    01:00 -8°C° 0 mm 2 mps 683 mmHg 100%
    02:00 -5°C° 0 mm 0 mps 684 mmHg 100%
    03:00 -9°C° 0 mm 2 mps 683 mmHg 100%
    04:00 -9°C° 0 mm 2 mps 683 mmHg 100%
    05:00 -9°C° 0 mm 2 mps 683 mmHg 100%
    06:00 -10°C° 0 mm 2 mps 683 mmHg 100%
    07:00 -9°C° 0 mm 1 mps 682 mmHg 100%
    08:00 -10°C° 0 mm 2 mps 682 mmHg 100%
    09:00 -10°C° 0 mm 2 mps 682 mmHg 100%
    10:00 -7°C° 0 mm 1 mps 683 mmHg 100%
    11:00 -4°C° 0 mm 1 mps 683 mmHg 100%
    12:00 -3°C° 0 mm 1 mps 684 mmHg 100%
    13:00 -4°C° 0 mm 2 mps 684 mmHg 100%
    14:00 +1°C° 0 mm 1 mps 685 mmHg 78%
    15:00 -3°C° 0 mm 2 mps 684 mmHg 100%
    16:00 -5°C° 0.4 mm 3 mps 683 mmHg 100%
    17:00 -6°C° 0.5 mm 3 mps 683 mmHg 100%
    18:00 -6°C° 0.2 mm 2 mps 682 mmHg 100%
    19:00 -7°C° 0.4 mm 2 mps 682 mmHg 100%
    20:00 -7°C° 0.7 mm 2 mps 682 mmHg 100%
    21:00 -8°C° 0.8 mm 2 mps 682 mmHg 100%
    22:00 -8°C° 0.5 mm 2 mps 682 mmHg 100%
    23:00 -8°C° 0.2 mm 2 mps 682 mmHg 100%

    Tomorrow, 24 February, Saturday

    Time Temperature Precipitation Wind Pressure Humidity
    00:00 -9°C° 0.2 mm 2 mps 682 mmHg 100%
    01:00 -9°C° 0.2 mm 2 mps 682 mmHg 100%
    02:00 -9°C° 0.2 mm 2 mps 682 mmHg 100%
    03:00 -10°C° 0.2 mm 2 mps 682 mmHg 100%
    04:00 -12°C° 0.1 mm 3 mps 682 mmHg 100%
    05:00 -12°C° 0.1 mm 2 mps 682 mmHg 100%
    06:00 -12°C° 0.1 mm 2 mps 681 mmHg 100%
    07:00 -13°C° 0.1 mm 2 mps 681 mmHg 100%
    08:00 -13°C° 0.1 mm 2 mps 681 mmHg 100%
    09:00 -13°C° 0.1 mm 2 mps 682 mmHg 100%
    10:00 -13°C° 0 mm 3 mps 682 mmHg 100%
    11:00 -13°C° 0 mm 3 mps 682 mmHg 100%
    12:00 -12°C° 0 mm 3 mps 682 mmHg 100%
    13:00 -12°C° 0.1 mm 3 mps 682 mmHg 100%
    14:00 -12°C° 0.1 mm 3 mps 682 mmHg 100%
    15:00 -14°C° 0 mm 4 mps 682 mmHg 100%
    16:00 -14°C° 0 mm 3 mps 682 mmHg 100%
    17:00 -15°C° 0 mm 3 mps 681 mmHg 100%
    18:00 -16°C° 0 mm 2 mps 681 mmHg 100%
    19:00 -17°C° 0 mm 2 mps 681 mmHg 100%
    20:00 -16°C° 0 mm 1 mps 681 mmHg 100%
    21:00 -16°C° 0 mm 1 mps 681 mmHg 100%
    22:00 -17°C° 0.1 mm 1 mps 681 mmHg 100%
    23:00 -17°C° 0.1 mm 1 mps 681 mmHg 100%

    Day after tomorrow, 25 February, Sunday

    Time Temperature Precipitation Wind Pressure Humidity
    00:00 -17°C° 0 mm 1 mps 681 mmHg 100%
    01:00 -17°C° 0 mm 1 mps 681 mmHg 100%
    02:00 -17°C° 0.1 mm 1 mps 682 mmHg 100%
    03:00 -18°C° 0 mm 1 mps 682 mmHg 100%
    04:00 -18°C° 0 mm 1 mps 682 mmHg 100%
    05:00 -18°C° 0 mm 1 mps 682 mmHg 100%
    06:00 -18°C° 0 mm 1 mps 682 mmHg 100%
    07:00 -18°C° 0 mm 1 mps 682 mmHg 100%
    08:00 -18°C° 0 mm 1 mps 683 mmHg 100%
    09:00 -17°C° 0.1 mm 1 mps 683 mmHg 100%
    10:00 -17°C° 0 mm 2 mps 685 mmHg 100%
    11:00 -17°C° 0.1 mm 3 mps 685 mmHg 100%
    12:00 -15°C° 0.1 mm 3 mps 686 mmHg 100%
    13:00 -16°C° 0 mm 4 mps 686 mmHg 100%
    14:00 -16°C° 0 mm 4 mps 686 mmHg 100%
    15:00 -16°C° 0 mm 4 mps 686 mmHg 100%
    16:00 -16°C° 0 mm 4 mps 686 mmHg 100%
    17:00 -16°C° 0 mm 3 mps 686 mmHg 100%
    18:00 -16°C° 0 mm 2 mps 685 mmHg 100%
    19:00 -18°C° 0 mm 2 mps 685 mmHg 100%
    20:00 -16°C° 0 mm 1 mps 685 mmHg 100%
    21:00 -17°C° 0 mm 1 mps 685 mmHg 100%
    22:00 -17°C° 0 mm 1 mps 685 mmHg 100%
    23:00 -18°C° 0 mm 1 mps 685 mmHg 100%

    26 February, Monday

    Time Temperature Precipitation Wind Pressure Humidity
    00:00 -18°C° 0 mm 1 mps 685 mmHg 100%
    01:00 -19°C° 0 mm 1 mps 684 mmHg 100%
    02:00 -19°C° 0 mm 1 mps 684 mmHg 100%
    03:00 -20°C° 0 mm 1 mps 684 mmHg 100%
    04:00 -20°C° 0 mm 1 mps 683 mmHg 100%
    05:00 -20°C° 0 mm 1 mps 683 mmHg 100%
    06:00 -20°C° 0 mm 1 mps 683 mmHg 100%
    07:00 -24°C° 0 mm 2 mps 683 mmHg 100%
    08:00 -24°C° 0 mm 2 mps 683 mmHg 100%
    09:00 -20°C° 0 mm 1 mps 683 mmHg 100%
    10:00 -19°C° 0 mm 1 mps 683 mmHg 100%
    11:00 -19°C° 0 mm 2 mps 684 mmHg 100%
    12:00 -18°C° 0 mm 3 mps 684 mmHg 100%
    13:00 -17°C° 0 mm 3 mps 684 mmHg 100%
    14:00 -18°C° 0 mm 4 mps 684 mmHg 100%
    15:00 -18°C° 0 mm 4 mps 683 mmHg 100%
    16:00 -19°C° 0 mm 4 mps 683 mmHg 100%
    17:00 -19°C° 0 mm 4 mps 682 mmHg 100%
    18:00 -21°C° 0 mm 3 mps 682 mmHg 100%
    19:00 -21°C° 0 mm 3 mps 682 mmHg 100%
    20:00 -22°C° 0 mm 3 mps 682 mmHg 100%
    21:00 -22°C° 0 mm 3 mps 681 mmHg 100%
    22:00 -22°C° 0 mm 3 mps 681 mmHg 100%
    23:00 -22°C° 0.1 mm 3 mps 680 mmHg 100%

    27 February, Tuesday

    Time Temperature Precipitation Wind Pressure Humidity
    00:00 -23°C° 0.2 mm 4 mps 680 mmHg 100%
    01:00 -23°C° 0.1 mm 4 mps 679 mmHg 100%
    02:00 -23°C° 0.1 mm 4 mps 679 mmHg 100%
    03:00 -23°C° 0.2 mm 4 mps 678 mmHg 100%
    04:00 -23°C° 0.1 mm 4 mps 678 mmHg 100%
    05:00 -23°C° 0.2 mm 4 mps 677 mmHg 100%
    06:00 -23°C° 0.2 mm 4 mps 677 mmHg 100%
    07:00 -24°C° 0.2 mm 5 mps 677 mmHg 100%
    08:00 -24°C° 0.2 mm 5 mps 676 mmHg 100%
    09:00 -24°C° 0.2 mm 5 mps 676 mmHg 100%
    10:00 -23°C° 0.2 mm 6 mps 676 mmHg 100%
    11:00 -22°C° 0.2 mm 6 mps 676 mmHg 100%
    12:00 -21°C° 0.2 mm 6 mps 676 mmHg 100%
    13:00 -21°C° 0.3 mm 6 mps 676 mmHg 100%
    14:00 -20°C° 0.3 mm 6 mps 675 mmHg 100%

    28 February, Wednesday

    Time Temperature Precipitation Wind Pressure Humidity
    Show more